Regional Weather Roundup
Issued by NWS

Home | Current Version | Previous Version | Graphics & Text | Print | Product List | Glossary On
Versions: 1 2 3 4 5 6 7 8 9 10 11 12 13 14 15 16 17 18 19 20 21 22 23 24 25 26 27 28 29 30 31 32 33 34 35 36 37 38 39 40 41 42 43 44 45 46 47 48 49 50
000
ASUS44 KMEG 020110
RWRTN
TENNESSEE HOURLY STATE WEATHER ROUNDUP
NATIONAL WEATHER SERVICE MEMPHIS TN
800 PM CDT WED OCT 01 2014

TNZ002-004-019-021-049-052-054-088>092-020200-
WEST TENNESSEE

CITY           SKY/WX    TMP DP  RH WIND       PRES   REMARKS
MEMPHIS INTL   MOCLDY    82  63  52 SE8       29.90R
NWS MEMPHIS      N/A     79 N/A N/A MISG        N/A
JACKSON        PTCLDY    76  63  64 S3        29.92R
DYERSBURG      PTCLDY    75  57  53 SE3       29.91R
UNION CITY     PTCLDY    72  64  78 SE3       29.90R
PARIS          CLEAR     66  61  82 CALM      29.94R
HUNTINGDON     PTCLDY    70  61  73 CALM      29.93R
LEXINGTON      CLEAR     68  63  83 CALM      29.93R
SAVANNAH       CLEAR     70  64  83 CALM      29.94R
$$

TNZ008-025-027-028-033-062-065-066-020200-
NORTH MIDDLE TENNESSEE

CITY           SKY/WX    TMP DP  RH WIND       PRES   REMARKS
NASHVILLE      PTCLDY    76  58  53 SE5       29.96R
PORTLAND       CLEAR     72  55  56 SE5       29.96R
CLARKSVILLE    CLEAR     75  58  55 S3        29.94R
LEBANON        CLEAR     73  56  55 CALM      29.95R
SMYRNA         PTCLDY    74  58  57 SE5       29.97R
MURFREESBORO   CLEAR     77  57  49 SE5       29.96
COOKEVILLE     CLEAR     61  57  88 CALM      29.99S
LIVINGSTON     CLEAR     64  50  60 CALM      30.02R
GALLATIN       CLEAR     75  58  55 CALM      29.97R
CROSSVILLE     CLEAR     65  58  78 CALM      30.05R
$$

TNZ061-075-076-078-094-096-097-020200-
SOUTH MIDDLE TENNESSEE

CITY           SKY/WX    TMP DP  RH WIND       PRES   REMARKS
LEWISBURG      CLEAR     66  60  81 CALM      29.96R
FAYETTEVILLE   CLEAR     72  57  60 SE5       29.98R
TULLAHOMA        N/A     66  61  82 CALM      30.00R
WINCHESTER     CLEAR     70  61  73 CALM      29.99R
MCMINNVILLE    CLEAR     66  61  82 CALM      30.00R
COLUMBIA       CLEAR     70  70 100 S5        29.95R
SHELBYVILLE    CLEAR     70  61  73 CALM      29.98R
$$

TNZ017-018-042-046-047-020200-
NORTHEAST TENNESSEE

CITY           SKY/WX    TMP DP  RH WIND       PRES   REMARKS
TRI CITIES     CLEAR     63  53  70 CALM      30.04R
ELIZABETHTON   CLEAR     61  54  77 CALM      30.06R
$$

TNZ012-013-036-069-073-074-020200-
CENTRAL EAST TENNESSEE

CITY           SKY/WX    TMP DP  RH WIND       PRES   REMARKS
KNOXVILLE      CLEAR     71  54  54 CALM      30.01R
OAK RIDGE      CLEAR     65  57  75 CALM      30.03R
GATLINBURG     MOCLDY    66  55  68 CALM      30.02R
MORRISTOWN     CLEAR     66  57  72 CALM      30.04R
$$

TNZ083-085-099-020200-
SOUTHEAST TENNESSEE

CITY           SKY/WX    TMP DP  RH WIND       PRES   REMARKS
CHATTANOOGA    PTCLDY    72  60  66 CALM      29.99R
$$

SKY/WX REPORTED AS FAIR MEANS FEW OR NO CLOUDS BELOW
12 THOUSAND FEET.



USA.gov is the U.S. government's official web portal to all federal, state and local government web resources and services.